Rayong, Thailand

10:11 PM +07 on June 23, 2017 (GMT +0700)
U-Taphao International

Weather History for VTBU - December, 2012

Change the Weather History Date:

Wednesday, December 19, 2012

  Actual Average Record
Temperature  
Mean Temperature 84 °F -  
Max Temperature 93 °F 86 °F 95 °F (2000)
Min Temperature 75 °F 70 °F 63 °F (2013)
Cooling Degree Days 19    
Growing Degree Days 34 (Base 50)    
Moisture  
Dew Point 71 °F    
Average Humidity 69    
Maximum Humidity 94    
Minimum Humidity 38    
Precipitation  
Precipitation 0.00 in - - ()
Sea Level Pressure  
Sea Level Pressure 29.82 in    
Wind  
Wind Speed 2 mph ()    
Max Wind Speed 8 mph    
Max Gust Speed -    
Visibility 3.5 miles    
Events      
Averages and records for this station are not official NWS values.
T = Trace of Precipitation, MM = Missing Value Source: Averaged Metar Reports

Daily Weather History Graph

Daily Weather History Graph

Search for Another Location

Airport or City:

Trip Planner

Search our weather history database for the weather conditions in past years. The results will help you decide how hot, cold, wet, or windy it might be!

Date:

Astronomy

Dec. 19, 2012 Rise Set
Actual Time 6:30 AM +07 5:53 PM +07
Civil Twilight 6:07 AM +07 6:16 PM +07
Nautical Twilight 5:40 AM +07 6:42 PM +07
Astronomical Twilight 5:14 AM +07 7:09 PM +07
Moon 11:22 AM +07 (12/19) 11:44 PM +07 (12/19)
Length of Visible Light 12h 09m
Length of Day
11h 23m
Waxing Crescent, 39% of the Moon is Illuminated
Dec 19
Waxing Crescent
Dec 20
First Quarter
Dec 28
Full
Jan 5
Last Quarter
Jan 12
New

Hourly Weather History & Observations

Time (+07) Temp. Heat Index Dew Point Humidity Pressure Visibility Wind Dir Wind Speed Gust Speed Precip Events Conditions
12:00 AM 78.8 °F - 73.4 °F 83% 29.86 in 1.2 mi Calm Calm - N/A   Mist
12:30 AM 77.0 °F - 73.4 °F 89% 29.86 in 1.2 mi Calm Calm - N/A   Mist
1:00 AM 77.0 °F - 73.4 °F 89% 29.83 in 1.2 mi Calm Calm - N/A   Mist
1:30 AM 77.0 °F - 73.4 °F 89% 29.83 in 1.2 mi Calm Calm - N/A   Mist
2:00 AM 77.0 °F - 73.4 °F 89% 29.83 in 1.2 mi Calm Calm - N/A   Mist
2:30 AM 77.0 °F - 73.4 °F 89% 29.83 in 1.2 mi NE 3.5 mph - N/A   Mist
3:00 AM 75.2 °F - 71.6 °F 89% 29.83 in 1.2 mi North 4.6 mph - N/A   Mist
5:00 AM 75.2 °F - 71.6 °F 89% 29.80 in 1.2 mi Calm Calm - N/A   Mist
5:30 AM 75.2 °F - 71.6 °F 89% 29.80 in 1.2 mi North 3.5 mph - N/A   Mist
6:00 AM 75.2 °F - 73.4 °F 94% 29.83 in 1.2 mi North 3.5 mph - N/A   Mist
6:30 AM 77.0 °F - 73.4 °F 89% 29.83 in 1.2 mi NNE 3.5 mph - N/A   Scattered Clouds
7:00 AM 77.0 °F - 73.4 °F 89% 29.83 in 1.2 mi North 3.5 mph - N/A   Scattered Clouds
7:30 AM 77.0 °F - 73.4 °F 89% 29.86 in 1.2 mi NNE 3.5 mph - N/A   Scattered Clouds
8:00 AM 78.8 °F - 73.4 °F 83% 29.86 in 1.9 mi NNE 3.5 mph - N/A   Scattered Clouds
9:00 AM 84.2 °F 89.6 °F 71.6 °F 66% 29.86 in 1.9 mi NE 3.5 mph - N/A   Scattered Clouds
9:30 AM 86.0 °F 91.8 °F 71.6 °F 62% 29.86 in 2.5 mi NE 4.6 mph - N/A   Haze
10:00 AM 89.6 °F 96.2 °F 71.6 °F 55% 29.86 in 2.5 mi NE 3.5 mph - N/A   Haze
10:30 AM 91.4 °F 96.8 °F 69.8 °F 49% 29.86 in 3.7 mi NNE 4.6 mph - N/A   Mostly Cloudy
11:00 AM 93.2 °F 96.2 °F 66.2 °F 41% 29.86 in 4.3 mi East 4.6 mph - N/A   Mostly Cloudy
11:30 AM 93.2 °F 94.9 °F 64.4 °F 38% 29.86 in 5.0 mi South 5.8 mph - N/A   Mostly Cloudy
12:00 PM 93.2 °F 100.5 °F 71.6 °F 49% 29.83 in 5.0 mi SSE 6.9 mph - N/A   Mostly Cloudy
12:30 PM 91.4 °F 98.4 °F 71.6 °F 52% 29.83 in 5.0 mi SSE 8.1 mph - N/A   Mostly Cloudy
1:00 PM 91.4 °F 94.0 °F 66.2 °F 43% 29.80 in 5.0 mi South 6.9 mph - N/A   Mostly Cloudy
1:30 PM 91.4 °F 93.2 °F 64.4 °F 41% 29.80 in 5.0 mi South 8.1 mph - N/A   Mostly Cloudy
2:00 PM 91.4 °F 94.0 °F 66.2 °F 43% 29.77 in 5.6 mi South 6.9 mph - N/A   Mostly Cloudy
2:30 PM 91.4 °F 95.4 °F 68.0 °F 46% 29.77 in 5.6 mi SSW 6.9 mph - N/A   Mostly Cloudy
3:00 PM 91.4 °F 96.8 °F 69.8 °F 49% 29.77 in 5.6 mi SSW 5.8 mph - N/A   Mostly Cloudy
3:30 PM 91.4 °F 96.8 °F 69.8 °F 49% 29.74 in 5.6 mi SW 4.6 mph - N/A   Mostly Cloudy
4:00 PM 89.6 °F 94.7 °F 69.8 °F 52% 29.74 in 5.6 mi South 4.6 mph - N/A   Mostly Cloudy
4:30 PM 89.6 °F 94.7 °F 69.8 °F 52% 29.74 in 5.6 mi South 4.6 mph - N/A   Mostly Cloudy
5:00 PM 89.6 °F 96.2 °F 71.6 °F 55% 29.77 in 5.0 mi SSW 3.5 mph - N/A   Mostly Cloudy
5:30 PM 87.8 °F 93.8 °F 71.6 °F 58% 29.77 in 5.0 mi SSW 2.3 mph - N/A   Mostly Cloudy
6:00 PM 86.0 °F 91.8 °F 71.6 °F 62% 29.77 in 5.0 mi WSW 3.5 mph - N/A   Mostly Cloudy
6:30 PM 84.2 °F 92.3 °F 75.2 °F 74% 29.80 in 5.0 mi WNW 3.5 mph - N/A   Mostly Cloudy
7:00 PM 82.4 °F 88.2 °F 73.4 °F 74% 29.80 in 5.0 mi Calm Calm - N/A   Mostly Cloudy
7:30 PM 82.4 °F 88.2 °F 73.4 °F 74% 29.80 in 5.0 mi Calm Calm - N/A   Scattered Clouds
8:00 PM 80.6 °F 84.6 °F 71.6 °F 74% 29.80 in 5.0 mi Calm Calm - N/A   Scattered Clouds
9:00 PM 80.6 °F 84.6 °F 71.6 °F 74% 29.83 in 5.0 mi Calm Calm - N/A   Scattered Clouds
10:00 PM 78.8 °F - 71.6 °F 78% 29.83 in 5.0 mi Calm Calm - N/A   Scattered Clouds
10:30 PM 78.8 °F - 71.6 °F 78% 29.83 in 4.3 mi Calm Calm - N/A   Scattered Clouds
11:00 PM 77.0 °F - 71.6 °F 83% 29.83 in 4.3 mi Calm Calm - N/A   Scattered Clouds
11:30 PM 77.0 °F - 71.6 °F 83% 29.83 in 4.3 mi Calm Calm - N/A   Scattered Clouds